Simultaneous Nadir Overpasses (SNOs) Predictions

Prediction of SNOs between GOES-17 and AQUA Satellite Orbit:

Table of predicted SNOs for the next 14.0 days since TLE Epoch: 6/17/2023
Index Date Time (GOES-17) GOES-17 Lat,Lon AQUA Lat,Lon Distance(km) Time Diff (sec)
1 06/17/2023 08:53:15 0.00,-104.72 0.15,-105.53 91.76 80
2 06/19/2023 08:36:27 0.00,-104.72 -0.54,-102.08 299.95 80
3 06/19/2023 20:57:20 -0.00,-104.71 -0.55,-107.14 277.32 80
4 06/21/2023 20:45:53 0.00,-104.71 0.23,-103.70 114.91 80
5 06/22/2023 09:06:38 -0.00,-104.73 0.85,-108.73 454.84 80
6 06/24/2023 08:52:30 -0.01,-104.73 0.09,-105.28 62.19 80
7 06/26/2023 08:35:41 -0.01,-104.74 -0.64,-101.83 330.98 80
8 06/26/2023 20:56:35 0.01,-104.72 -0.43,-106.89 246.39 80
9 06/28/2023 20:45:05 0.01,-104.73 0.28,-103.43 147.08 80
10 06/29/2023 09:05:50 -0.01,-104.75 0.78,-108.46 421.93 80
